Wind_Speed
25 25 25 25 24 24 23 22 23 24 24 24 25 25 26 27 26 27 27 28 28 29 30 30 31 32 32 33 33 34 34 34 35 37 37 38 39 39
24 24 24 23 23 22 22 22 22 23 24 25 26 27 28 27 26 27 27 27 27 28 30 30 31 31 32 33 34 34 34 35 35 35 36 37 38 39
23 23 23 22 22 22 22 22 24 24 24 25 26 27 28 28 29 28 26 27 28 29 30 31 31 32 32 33 33 33 34 34 35 35 36 37 38 39
23 23 22 21 21 22 22 22 23 24 24 25 26 26 27 28 29 29 28 28 28 29 29 30 31 32 33 33 33 33 34 34 35 35 36 36 37 39
22 22 21 21 21 21 22 22 23 23 24 24 25 26 27 28 27 27 28 29 29 29 29 29 30 31 32 33 33 33 33 33 34 34 35 36 37 38
22 21 20 20 20 20 21 21 22 23 23 23 24 25 25 26 26 26 27 27 28 28 28 29 29 30 31 32 32 33 33 34 34 34 35 35 36 37
21 20 20 20 19 19 20 20 21 21 21 22 22 22 22 24 25 25 25 26 26 26 27 28 29 29 30 31 31 31 32 32 33 34 35 35 36 37
20 20 20 20 20 20 19 20 20 20 20 21 21 21 21 22 24 24 24 24 24 25 25 25 26 27 27 27 28 29 29 30 31 32 33 34 35 36
20 19 19 19 19 19 18 19 19 19 19 20 21 21 21 22 23 24 24 24 23 24 25 24 24 25 25 26 27 28 29 30 31 32 32 33 34 35
19 18 18 18 18 17 17 17 17 17 18 19 20 20 21 22 22 23 23 23 23 23 24 23 24 25 25 26 27 28 29 30 31 31 32 32 33 34
17 17 17 17 17 16 16 15 16 16 17 18 19 20 20 21 21 21 22 21 21 22 23 23 23 24 25 26 27 28 29 29 30 31 31 32 32 33
16 16 16 15 15 15 14 14 14 15 15 16 17 17 17 18 18 18 19 19 19 20 20 22 23 24 25 25 26 28 29 29 30 31 32 32 33 33
15 15 14 14 14 13 14 14 14 14 15 15 15 14 14 14 15 16 17 17 18 19 19 21 21 22 24 24 25 27 28 28 29 30 31 32 32 33
14 14 13 13 12 12 13 13 14 14 14 14 13 13 13 13 13 15 16 17 18 19 19 20 20 20 21 22 23 24 26 26 27 28 29 30 30 31
15 14 13 12 12 13 13 13 14 14 13 13 13 13 13 13 14 14 15 16 17 18 18 19 19 20 20 20 20 22 23 24 25 26 28 29 30 30
15 14 14 13 13 14 14 14 14 14 14 14 13 14 14 14 14 15 15 16 17 17 17 18 18 19 19 19 19 19 20 21 23 24 25 27 28 28
15 15 14 14 14 14 14 15 15 15 14 14 14 15 15 15 15 15 16 16 16 17 17 18 18 18 18 18 17 18 18 19 20 21 22 23 24 25
16 16 16 16 15 15 15 15 15 14 14 14 14 15 15 16 16 16 17 17 18 18 18 17 17 17 17 17 17 17 17 17 18 19 20 20 21 23
17 17 17 17 16 16 16 16 16 15 14 14 14 15 16 16 17 17 18 18 17 17 18 17 17 17 17 16 16 16 16 16 17 17 18 19 20 21
18 18 17 17 17 17 17 17 16 15 15 15 15 15 16 16 17 17 16 16 17 17 17 17 17 17 16 16 16 16 16 16 16 17 18 19 20 21
19 19 19 18 18 18 18 18 17 16 16 16 16 16 16 15 16 16 16 16 16 17 17 16 16 17 16 16 16 16 17 17 17 17 17 18 19 20
19 19 19 19 19 19 20 20 19 18 17 17 17 17 16 15 16 16 16 16 16 17 16 16 16 16 16 16 16 17 17 17 18 18 17 17 18 18
19 19 19 19 20 20 21 21 20 19 18 18 18 18 17 17 16 16 16 16 16 16 16 16 16 16 16 16 15 16 16 17 17 17 17 18 18 18
Wind_Direction
293 289 286 284 281 277 273 270 267 266 262 261 260 260 262 263 263 262 262 262 260 258 256 253 254 255 256 256 255 253 252 251 251 250 249 247 246 245
296 294 291 288 283 280 277 273 272 269 266 264 263 264 264 265 265 264 264 261 259 258 256 255 256 256 257 257 256 254 253 251 250 249 248 247 246 246
299 297 294 291 285 281 280 277 274 272 269 266 265 264 264 264 265 265 265 263 261 259 258 258 258 256 256 256 255 253 253 252 251 250 248 247 246 245
300 299 295 291 288 284 282 279 275 272 271 270 267 268 266 265 265 264 264 264 262 261 261 260 259 258 257 257 256 254 252 251 251 250 249 247 246 245
302 297 293 292 290 287 283 281 277 274 273 272 271 269 266 266 266 266 265 265 264 263 262 261 260 259 258 258 256 253 251 251 250 250 250 249 247 246
303 301 298 295 292 290 287 284 281 277 275 273 273 272 268 267 266 265 265 266 265 263 262 263 262 259 257 256 256 254 252 251 251 251 250 250 250 249
303 302 302 299 297 294 291 289 285 280 278 276 275 274 273 269 268 267 266 267 266 264 263 263 262 260 257 258 258 256 254 253 253 253 252 251 250 250
303 302 301 302 299 297 294 291 287 283 280 278 277 276 276 274 272 271 271 270 269 268 267 266 265 264 261 260 258 257 254 253 253 254 254 253 252 251
305 304 304 306 302 300 296 293 291 287 283 281 279 278 276 276 274 272 271 271 271 270 268 266 265 264 263 262 260 257 255 254 254 255 254 254 254 254
305 304 306 308 307 305 302 299 296 291 288 284 282 280 277 276 276 273 272 270 271 270 269 266 264 265 264 264 263 259 257 256 256 255 254 253 253 254
307 308 308 308 307 305 306 302 300 295 291 289 287 283 281 279 276 275 272 271 270 271 270 268 267 266 265 264 264 261 260 258 256 255 254 254 254 254
310 310 309 310 311 311 311 307 305 304 300 297 294 289 286 283 280 278 275 273 273 275 272 271 271 270 267 264 264 263 260 258 256 255 255 254 255 255
318 315 311 309 313 316 315 313 309 309 308 305 301 298 294 290 286 283 280 277 278 281 277 277 276 274 272 267 265 263 262 261 260 258 257 257 257 257
327 322 318 315 317 318 318 316 312 311 310 307 306 303 299 297 293 289 287 284 284 284 282 282 282 280 279 273 268 267 264 262 260 259 258 258 258 257
338 332 326 323 322 321 319 317 315 311 310 308 307 304 301 300 296 295 292 291 290 290 288 287 286 285 283 280 273 269 267 264 263 261 260 260 259 258
347 343 336 331 327 325 323 321 319 315 312 310 309 308 306 304 302 299 297 296 295 294 292 289 287 287 286 284 279 275 272 268 266 264 263 262 261 258
349 349 347 342 336 333 330 328 326 322 316 311 311 310 308 308 306 303 300 299 299 299 297 295 293 292 290 288 282 278 275 272 269 267 266 266 263 259
350 348 347 344 342 339 335 332 329 325 321 314 312 311 309 308 308 306 302 301 299 300 300 297 294 293 292 289 285 281 276 273 271 269 268 266 263 260
353 350 349 346 344 341 338 335 330 326 322 318 314 312 310 309 309 309 305 303 303 302 301 298 294 293 291 286 283 280 277 276 274 271 269 267 264 262
352 351 349 348 345 343 340 338 334 328 324 322 319 315 312 310 312 312 308 305 303 303 302 300 296 294 292 289 286 280 279 278 274 273 271 269 266 265
350 350 349 348 347 347 344 341 337 332 326 323 323 322 320 318 317 316 313 309 305 304 303 301 299 296 293 291 288 287 286 282 278 276 276 272 271 270
349 350 350 350 349 348 346 343 341 337 332 328 329 329 326 325 324 321 318 314 310 305 303 302 301 299 296 294 291 290 287 283 280 279 278 277 275 275
349 348 347 347 348 347 347 346 345 342 337 331 331 331 329 324 322 322 321 316 314 311 306 303 301 298 297 297 297 296 292 288 284 281 279 277 276 276
Height
5717 5714 5712 5710 5708 5707 5706 5705 5705 5705 5705 5706 5706 5706 5706 5707 5707 5707 5708 5708 5708 5709 5709 5710 5712 5713 5714 5715 5716 5717 5719 5720 5722 5724 5726 5728 5731 5734
5710 5707 5705 5703 5701 5699 5698 5697 5697 5696 5697 5698 5698 5698 5698 5698 5699 5699 5699 5700 5700 5700 5700 5701 5702 5703 5704 5705 5706 5707 5709 5710 5712 5714 5716 5718 5721 5724
5703 5701 5698 5696 5694 5693 5691 5690 5689 5688 5688 5689 5689 5689 5689 5689 5690 5690 5690 5691 5691 5691 5691 5692 5693 5694 5695 5696 5696 5698 5699 5701 5702 5704 5706 5708 5710 5714
5697 5694 5692 5689 5688 5686 5684 5683 5682 5681 5680 5681 5680 5680 5680 5680 5681 5681 5682 5682 5682 5682 5682 5683 5683 5684 5685 5686 5686 5688 5689 5691 5693 5694 5696 5698 5700 5702
5691 5688 5686 5683 5681 5679 5677 5676 5674 5673 5672 5672 5672 5671 5671 5671 5671 5672 5672 5672 5673 5673 5673 5674 5674 5675 5675 5676 5677 5678 5680 5682 5683 5685 5686 5688 5690 5693
5685 5682 5679 5677 5674 5672 5670 5668 5667 5665 5664 5664 5663 5663 5662 5662 5663 5663 5663 5663 5664 5664 5664 5665 5665 5665 5666 5667 5668 5669 5670 5672 5673 5675 5676 5678 5680 5682
5679 5676 5674 5671 5668 5666 5663 5661 5660 5658 5657 5656 5656 5655 5654 5654 5655 5654 5654 5654 5655 5654 5655 5656 5656 5656 5657 5657 5658 5659 5661 5662 5664 5665 5667 5668 5670 5672
5673 5670 5668 5665 5662 5660 5657 5655 5653 5652 5650 5649 5649 5648 5647 5647 5646 5646 5646 5646 5647 5647 5646 5646 5646 5647 5648 5648 5649 5650 5651 5653 5654 5656 5657 5658 5660 5662
5667 5664 5662 5659 5656 5654 5651 5649 5647 5645 5644 5643 5642 5641 5641 5640 5639 5639 5638 5638 5638 5638 5638 5638 5638 5638 5639 5639 5640 5641 5642 5643 5645 5646 5647 5649 5650 5652
5661 5659 5656 5654 5651 5649 5646 5644 5642 5640 5638 5637 5636 5634 5633 5632 5631 5631 5630 5630 5630 5629 5629 5630 5630 5630 5630 5631 5631 5632 5633 5634 5635 5636 5638 5639 5640 5641
5655 5653 5651 5649 5646 5644 5641 5639 5637 5635 5633 5631 5629 5627 5626 5624 5623 5623 5622 5622 5622 5622 5621 5621 5622 5622 5622 5623 5622 5622 5623 5624 5625 5626 5628 5629 5630 5631
5651 5648 5646 5644 5641 5639 5637 5634 5632 5630 5627 5625 5623 5621 5619 5617 5617 5616 5616 5615 5615 5615 5613 5613 5613 5613 5614 5614 5613 5613 5613 5614 5615 5616 5618 5619 5620 5621
5646 5644 5642 5639 5637 5635 5633 5630 5628 5625 5623 5620 5618 5616 5614 5612 5611 5611 5610 5610 5609 5608 5607 5606 5605 5604 5605 5605 5604 5604 5604 5604 5605 5607 5608 5609 5610 5611
5643 5640 5638 5636 5633 5631 5629 5627 5624 5621 5619 5616 5614 5612 5610 5609 5608 5606 5605 5604 5604 5603 5601 5600 5598 5598 5597 5597 5596 5596 5595 5596 5596 5597 5598 5599 5600 5601
5640 5637 5635 5633 5630 5628 5626 5623 5620 5617 5615 5613 5611 5609 5607 5605 5604 5602 5601 5599 5598 5597 5595 5593 5592 5591 5590 5589 5588 5588 5587 5587 5587 5588 5589 5589 5590 5591
5639 5635 5632 5630 5627 5624 5622 5619 5617 5614 5611 5609 5607 5605 5603 5601 5599 5597 5596 5594 5593 5591 5589 5587 5586 5585 5583 5582 5581 5580 5580 5579 5579 5579 5580 5580 5581 5581
5637 5634 5631 5628 5625 5622 5619 5616 5613 5610 5608 5605 5603 5601 5599 5597 5595 5593 5591 5589 5587 5585 5584 5582 5580 5578 5576 5575 5574 5574 5573 5572 5572 5572 5572 5572 5572 5573
5637 5633 5630 5626 5623 5620 5616 5613 5610 5607 5604 5602 5600 5598 5595 5593 5591 5588 5586 5584 5582 5580 5578 5576 5574 5572 5571 5569 5568 5567 5566 5566 5565 5565 5565 5565 5565 5565
5636 5632 5628 5624 5621 5617 5614 5610 5607 5604 5601 5598 5596 5593 5591 5588 5586 5583 5581 5578 5576 5574 5572 5570 5568 5567 5566 5564 5563 5561 5561 5560 5559 5559 5559 5558 5558 5558
5635 5631 5627 5623 5619 5615 5611 5608 5604 5600 5597 5594 5591 5589 5586 5583 5581 5578 5575 5573 5571 5569 5567 5565 5563 5561 5559 5559 5557 5556 5555 5554 5553 5553 5552 5552 5552 5551
5633 5629 5625 5621 5617 5613 5609 5604 5600 5597 5594 5590 5587 5584 5581 5578 5576 5573 5571 5568 5566 5564 5562 5560 5557 5556 5554 5552 5552 5551 5549 5548 5547 5547 5546 5545 5545 5545
5632 5627 5623 5619 5615 5611 5606 5602 5597 5593 5590 5586 5583 5580 5577 5574 5571 5569 5566 5563 5561 5559 5557 5555 5552 5550 5549 5547 5546 5545 5543 5542 5541 5540 5540 5539 5538 5538
5630 5626 5622 5617 5613 5609 5604 5599 5595 5591 5587 5583 5580 5576 5573 5570 5567 5564 5562 5559 5556 5554 5552 5550 5548 5545 5544 5542 5541 5539 5537 5536 5535 5534 5533 5532 5532 5531